Total_Precipitation_Accumulation
0.08 0.04 0.08 0.11 0.06 0.00 0.00 0.00 0.00 0.00 0.00 0.00 0.00 0.00 0.00 0.00 0.00 0.00 0.00 0.00 0.00 0.00 0.00 0.00 0.00 0.00 0.00 0.00 0.00 0.00 0.00 0.00 0.00 0.00 0.00 0.00 0.00 0.00 0.00 0.00 0.00 0.00 0.00
0.13 0.11 0.11 0.06 0.04 0.02 0.00 0.00 0.00 0.00 0.00 0.00 0.00 0.00 0.00 0.00 0.00 0.00 0.00 0.00 0.00 0.00 0.00 0.00 0.00 0.00 0.00 0.00 0.00 0.00 0.00 0.00 0.00 0.00 0.00 0.00 0.00 0.00 0.00 0.00 0.00 0.00 0.00
0.12 0.19 0.16 0.06 0.03 0.02 0.00 0.00 0.00 0.00 0.00 0.00 0.00 0.00 0.00 0.00 0.00 0.00 0.00 0.00 0.00 0.00 0.00 0.00 0.00 0.00 0.00 0.00 0.00 0.00 0.00 0.00 0.00 0.00 0.00 0.00 0.00 0.00 0.00 0.00 0.00 0.00 0.00
0.12 0.22 0.21 0.11 0.03 0.01 0.00 0.00 0.00 0.00 0.00 0.00 0.00 0.00 0.00 0.00 0.00 0.00 0.00 0.00 0.00 0.00 0.00 0.00 0.00 0.00 0.00 0.00 0.00 0.00 0.00 0.00 0.00 0.00 0.00 0.00 0.00 0.00 0.00 0.00 0.00 0.00 0.00
0.42 0.18 0.25 0.14 0.06 0.03 0.00 0.00 0.00 0.00 0.00 0.00 0.00 0.00 0.00 0.00 0.00 0.00 0.00 0.00 0.00 0.00 0.00 0.00 0.00 0.00 0.00 0.00 0.00 0.00 0.00 0.00 0.00 0.00 0.00 0.00 0.00 0.00 0.00 0.00 0.00 0.00 0.00
0.75 0.40 0.30 0.21 0.10 0.06 0.00 0.00 0.00 0.00 0.00 0.00 0.00 0.00 0.00 0.00 0.00 0.00 0.00 0.00 0.00 0.00 0.00 0.00 0.00 0.00 0.00 0.00 0.00 0.00 0.00 0.00 0.00 0.00 0.00 0.00 0.00 0.00 0.00 0.00 0.00 0.00 0.00
0.51 0.75 0.35 0.14 0.09 0.07 0.00 0.00 0.00 0.00 0.00 0.00 0.00 0.00 0.00 0.00 0.00 0.00 0.00 0.00 0.00 0.00 0.00 0.00 0.00 0.00 0.00 0.00 0.00 0.00 0.00 0.00 0.00 0.00 0.00 0.00 0.00 0.00 0.00 0.00 0.00 0.00 0.00
0.25 0.55 0.42 0.16 0.06 0.04 0.01 0.00 0.00 0.00 0.00 0.00 0.00 0.00 0.00 0.00 0.00 0.00 0.00 0.00 0.00 0.00 0.00 0.00 0.00 0.00 0.00 0.00 0.00 0.00 0.00 0.00 0.00 0.00 0.00 0.00 0.00 0.00 0.00 0.00 0.00 0.00 0.00
0.23 0.28 0.34 0.20 0.06 0.01 0.00 0.00 0.00 0.00 0.00 0.00 0.00 0.00 0.00 0.00 0.00 0.00 0.00 0.00 0.00 0.00 0.00 0.00 0.00 0.00 0.00 0.00 0.00 0.00 0.00 0.00 0.00 0.00 0.00 0.00 0.00 0.00 0.01 0.01 0.00 0.00 0.00
0.24 0.22 0.25 0.28 0.09 0.01 0.00 0.00 0.00 0.00 0.00 0.00 0.00 0.00 0.00 0.00 0.00 0.00 0.00 0.00 0.00 0.00 0.00 0.00 0.00 0.00 0.00 0.00 0.00 0.00 0.00 0.00 0.00 0.00 0.00 0.00 0.00 0.00 0.02 0.02 0.03 0.03 0.03
0.10 0.24 0.22 0.23 0.11 0.02 0.01 0.00 0.00 0.00 0.00 0.00 0.00 0.00 0.00 0.00 0.00 0.00 0.00 0.00 0.00 0.00 0.00 0.00 0.00 0.00 0.00 0.00 0.00 0.00 0.00 0.00 0.00 0.00 0.00 0.00 0.00 0.00 0.01 0.03 0.05 0.07 0.07
0.02 0.09 0.24 0.18 0.10 0.04 0.01 0.00 0.00 0.00 0.00 0.00 0.00 0.00 0.00 0.00 0.00 0.00 0.00 0.00 0.00 0.00 0.00 0.00 0.00 0.00 0.00 0.00 0.00 0.00 0.00 0.00 0.00 0.00 0.00 0.00 0.00 0.00 0.00 0.01 0.02 0.03 0.05
0.07 0.02 0.06 0.13 0.09 0.04 0.02 0.01 0.00 0.00 0.00 0.01 0.01 0.01 0.00 0.00 0.00 0.00 0.00 0.00 0.00 0.00 0.00 0.00 0.00 0.00 0.00 0.00 0.00 0.00 0.00 0.00 0.00 0.00 0.00 0.00 0.00 0.00 0.00 0.00 0.00 0.01 0.02
0.11 0.14 0.06 0.04 0.06 0.06 0.02 0.02 0.01 0.00 0.01 0.02 0.04 0.03 0.02 0.01 0.00 0.00 0.00 0.00 0.01 0.00 0.00 0.00 0.00 0.00 0.00 0.01 0.00 0.00 0.00 0.00 0.00 0.00 0.00 0.00 0.00 0.01 0.03 0.05 0.06 0.05 0.03
0.10 0.23 0.27 0.22 0.14 0.08 0.07 0.07 0.08 0.05 0.06 0.10 0.15 0.17 0.12 0.09 0.08 0.07 0.05 0.03 0.02 0.01 0.00 0.00 0.00 0.00 0.03 0.02 0.02 0.01 0.01 0.02 0.01 0.00 0.00 0.02 0.04 0.06 0.07 0.06 0.04 0.02 0.01
0.08 0.17 0.29 0.59 0.60 0.26 0.18 0.24 0.29 0.20 0.21 0.29 0.34 0.39 0.38 0.29 0.21 0.18 0.15 0.12 0.11 0.11 0.09 0.00 0.03 0.04 0.03 0.01 0.01 0.00 0.01 0.02 0.02 0.05 0.05 0.05 0.07 0.07 0.05 0.04 0.02 0.02 0.02
0.01 0.08 0.26 0.52 0.85 0.62 0.46 0.45 0.43 0.37 0.29 0.32 0.45 0.47 0.43 0.39 0.37 0.28 0.23 0.17 0.13 0.13 0.10 0.01 0.06 0.07 0.06 0.04 0.02 0.00 0.02 0.03 0.07 0.11 0.05 0.04 0.04 0.03 0.02 0.01 0.01 0.01 0.00
0.01 0.04 0.20 0.49 0.62 0.66 0.52 0.62 0.62 0.54 0.52 0.37 0.28 0.35 0.37 0.29 0.25 0.21 0.19 0.13 0.09 0.08 0.10 0.05 0.07 0.06 0.06 0.05 0.03 0.03 0.05 0.06 0.06 0.06 0.04 0.02 0.01 0.00 0.00 0.00 0.00 0.00 0.00
0.01 0.03 0.06 0.28 0.53 0.49 0.60 0.69 0.66 0.64 0.69 0.58 0.39 0.25 0.21 0.16 0.13 0.12 0.09 0.07 0.05 0.06 0.06 0.09 0.11 0.10 0.09 0.08 0.06 0.07 0.07 0.05 0.03 0.03 0.01 0.01 0.00 0.00 0.00 0.00 0.00 0.00 0.00
0.01 0.01 0.02 0.04 0.25 0.46 0.54 0.73 0.73 0.79 0.73 0.52 0.33 0.23 0.15 0.09 0.07 0.06 0.05 0.04 0.04 0.03 0.02 0.03 0.05 0.08 0.09 0.09 0.09 0.08 0.06 0.04 0.04 0.01 0.01 0.01 0.00 0.00 0.00 0.00 0.00 0.00 0.00
0.00 0.01 0.01 0.01 0.04 0.18 0.48 0.48 0.57 0.41 0.39 0.30 0.14 0.08 0.11 0.10 0.08 0.08 0.08 0.06 0.04 0.02 0.02 0.04 0.07 0.09 0.08 0.05 0.05 0.03 0.01 0.01 0.00 0.00 0.00 0.00 0.00 0.00 0.00 0.00 0.00 0.00 0.00
0.01 0.00 0.00 0.01 0.03 0.06 0.22 0.31 0.41 0.27 0.17 0.19 0.13 0.04 0.03 0.06 0.06 0.05 0.04 0.03 0.02 0.01 0.01 0.03 0.05 0.06 0.06 0.04 0.02 0.00 0.00 0.00 0.00 0.00 0.00 0.00 0.00 0.00 0.00 0.00 0.00 0.00 0.00
0.03 0.02 0.02 0.01 0.01 0.05 0.12 0.16 0.27 0.17 0.07 0.14 0.11 0.05 0.04 0.02 0.02 0.00 0.01 0.01 0.02 0.05 0.04 0.04 0.05 0.04 0.02 0.01 0.00 0.00 0.00 0.00 0.00 0.00 0.00 0.00 0.00 0.00 0.00 0.00 0.00 0.00 0.00
0.03 0.03 0.03 0.04 0.01 0.03 0.05 0.06 0.07 0.05 0.04 0.02 0.03 0.01 0.01 0.02 0.03 0.02 0.01 0.01 0.02 0.03 0.04 0.02 0.01 0.01 0.00 0.00 0.00 0.00 0.00 0.00 0.00 0.00 0.00 0.00 0.00 0.00 0.00 0.00 0.00 0.00 0.00
0.04 0.03 0.02 0.03 0.01 0.01 0.07 0.06 0.03 0.01 0.02 0.03 0.03 0.04 0.03 0.04 0.12 0.05 0.01 0.01 0.02 0.02 0.03 0.01 0.01 0.00 0.00 0.01 0.00 0.00 0.00 0.00 0.00 0.00 0.00 0.00 0.00 0.00 0.00 0.00 0.00 0.00 0.00
0.02 0.04 0.03 0.03 0.04 0.02 0.05 0.08 0.06 0.03 0.05 0.05 0.05 0.09 0.11 0.08 0.14 0.07 0.02 0.02 0.02 0.01 0.01 0.01 0.02 0.03 0.03 0.02 0.01 0.01 0.00 0.00 0.00 0.00 0.00 0.00 0.00 0.00 0.00 0.00 0.00 0.00 0.00